Flight Track Log - Related Links

Times and Time Zones

All times are in EDT time to prevent confusion due to time zone crossing. See the UAL3776 flight status page for this flight to view local times or setup timezone preferences in your user account.

Time Position Orientation Groundspeed Altitude Reporting Facility
EDT Latitude Longitude Course Direction KTS MPH feet Rate Location/Type
Mon 03:45:28 PM 38.9333 -77.5167 195° South 183 211 2,200  Level Potomac TRACON
Mon 03:46:22 PM 38.8833 -77.5333 195° South 219 252 3,700 2,400 Climbing Potomac TRACON
Mon 03:47:28 PM 38.8000 -77.5333 180° South 274 315 7,000 2,929 Climbing Potomac TRACON
Mon 03:48:29 PM 38.7167 -77.5333 180° South 285 328 9,900 2,087 Climbing Potomac TRACON
Mon 03:49:23 PM 38.6333 -77.5500 189° South 309 356 11,000 695 Climbing Potomac TRACON
Mon 03:50:04 PM 38.5847 -77.5544 184° South 349 402 11,000 59 Level Washington Center
Mon 03:51:04 PM 38.4867 -77.5625 184° South 363 418 11,100 1,339 Climbing Washington Center
Mon 03:52:05 PM 38.3903 -77.5783 187° South 363 418 13,700 2,380 Climbing Washington Center
Mon 03:53:05 PM 38.3036 -77.6475 212° Southwest 355 409 15,900 2,050 Climbing Washington Center
Mon 03:54:05 PM 38.2211 -77.7219 215° Southwest 360 414 17,800 1,934 Climbing Washington Center
Mon 03:55:06 PM 38.1322 -77.7986 214° Southwest 377 434 19,800 1,815 Climbing Washington Center
Mon 03:56:04 PM 38.0389 -77.8775 214° Southwest 388 447 21,400 1,119 Climbing Washington Center
Mon 03:57:04 PM 37.9436 -77.9536 212° Southwest 402 463 22,000 298 Climbing Washington Center
Mon 03:58:05 PM 37.8353 -78.0475 214° Southwest 424 488 22,000  Level Washington Center
Mon 03:59:06 PM 37.7378 -78.1283 213° Southwest 429 494 22,000  Level Washington Center
Mon 04:00:06 PM 37.6525 -78.2042 215° Southwest 429 494 22,000  Level Washington Center
Mon 04:01:05 PM 37.5442 -78.2975 214° Southwest 429 494 22,000  Level Washington Center
Mon 04:02:05 PM 37.4464 -78.3778 213° Southwest 429 494 22,000  Level Washington Center
Mon 04:03:06 PM 37.3483 -78.4603 214° Southwest 429 494 22,000  Level Washington Center
Mon 04:04:06 PM 37.2486 -78.5400 212° Southwest 429 494 22,000  Level Washington Center
Mon 04:05:07 PM 37.1525 -78.6225 214° Southwest 429 494 22,000  Level Washington Center
Mon 04:06:04 PM 37.0653 -78.6919 212° Southwest 429 494 22,000 -51 Level Washington Center
Mon 04:07:04 PM 36.9672 -78.7736 214° Southwest 429 494 21,900 -942 Descending Washington Center
Mon 04:08:05 PM 36.8711 -78.8528 213° Southwest 429 494 20,100 -2,281 Descending Washington Center
Mon 04:09:05 PM 36.7814 -78.9269 214° Southwest 424 488 17,300 -2,529 Descending Washington Center
Mon 04:10:06 PM 36.6878 -78.9981 211° Southwest 384 442 15,000 -1,866 Descending Washington Center
Mon 04:11:04 PM 36.5958 -78.9967 179° South 326 375 13,600 -1,748 Descending Washington Center
Mon 04:12:13 PM 36.4925 -78.9661 167° South 339 390 11,300 -1,721 Descending Washington Center
Mon 04:13:06 PM 36.4139 -78.9422 166° South 333 383 10,100 -1,131 Descending Washington Center
Mon 04:14:15 PM 36.3361 -78.8819 148° Southeast 279 321 9,000 -1,017 Descending Washington Center
Mon 04:15:04 PM 36.2814 -78.8308 143° Southeast 285 328 8,100 -822 Descending Washington Center
Mon 04:15:28 PM 36.2631 -78.8147 145° Southeast 257 296 8,000 -200 Descending Washington Center
Mon 04:16:04 PM 36.2306 -78.7822 141° Southeast 253 291 7,900 -990 Descending Washington Center
Mon 04:17:05 PM 36.1733 -78.7336 146° Southeast 248 285 6,400 -942 Descending Washington Center
Mon 04:18:05 PM 36.1225 -78.6856 143° Southeast 243 280 6,000 -750 Descending Washington Center
Mon 04:19:05 PM 36.0694 -78.6344 142° Southeast 238 274 4,900 -1,291 Descending Washington Center
Mon 04:19:24 PM 36.0531 -78.6261 158° South 234 269 4,300 -1,770 Descending Washington Center
Mon 04:20:06 PM 36.0108 -78.6375 192° South 216 249 3,100 -1,200 Descending Washington Center
Mon 04:20:24 PM 35.9936 -78.6572 223° Southwest 215 247 3,100 -517 Level Washington Center
Mon 04:21:04 PM 35.9703 -78.6819 221° Southwest 182 209 2,600 -885 Descending Washington Center
Mon 04:21:25 PM 35.9592 -78.6994 232° Southwest 182 209 2,200 -947 Descending Washington Center
Mon 04:22:20 PM 35.9247 -78.7392 223° Southwest 163 188 1,400 -738 Descending Washington Center
Mon 04:23:27 PM 35.8967 -78.7742 225° Southwest 127 146 700 -627 Descending Washington Center
Mon 04:25:00 PM 35.8776 -78.7875 223° Southwest  Level Estimated
Mon 04:32:00 PM 35.8776 -78.7875 223° Southwest  Level Estimated
Mon 04:33:00 PM 35.8776 -78.7875 223° Southwest  Level Estimated

Login

Don't have an account? Register now (free) for customized features, flight alerts, and more!